GLO1479 SBCG-SBSP

Flight info

Callsign GLO1479
Flight time 1h 15m
Altitude 35000
Route BRAKE DCT ASEPO UM411 UTLOT
Aircraft B738/M-SDE2E3FGHIRWXY/LB1

Departure

Time 2026-05-04 22:05
Airport Campo Grande Airport (SBCG)

Arrival

Time 2026-05-04 23:20
Airport Congonhas–Deputado Freitas Nobre Airport (SBSP)
Time Latitude Longitude Altitude Speed Heading
2026-05-04 21:37 -20.45792 -54.66894 1843 ft 0 kts 354°
2026-05-04 21:55 -20.45797 -54.66893 1842 ft 2 kts 354°
2026-05-04 21:55 -20.45812 -54.66891 1842 ft 1 kts 353°
2026-05-04 21:55 -20.45822 -54.66890 1842 ft 2 kts 340°
2026-05-04 21:56 -20.45835 -54.66881 1842 ft 2 kts 312°
2026-05-04 21:56 -20.45842 -54.66867 1842 ft 2 kts 285°
2026-05-04 21:56 -20.45844 -54.66855 1842 ft 0 kts 266°
2026-05-04 21:56 -20.45843 -54.66848 1842 ft 0 kts 263°
2026-05-04 21:59 -20.45851 -54.66916 1842 ft 15 kts 264°
2026-05-04 21:59 -20.45862 -54.67050 1842 ft 19 kts 266°
2026-05-04 21:59 -20.45892 -54.67157 1842 ft 12 kts 182°
2026-05-04 21:59 -20.45990 -54.67139 1842 ft 15 kts 173°
2026-05-04 22:00 -20.46115 -54.67124 1842 ft 19 kts 175°
2026-05-04 22:00 -20.46264 -54.67106 1842 ft 23 kts 173°
2026-05-04 22:00 -20.46431 -54.67114 1842 ft 24 kts 208°
2026-05-04 22:00 -20.46565 -54.67237 1842 ft 26 kts 223°
2026-05-04 22:01 -20.46711 -54.67378 1842 ft 29 kts 221°
2026-05-04 22:01 -20.46867 -54.67528 1842 ft 31 kts 223°
2026-05-04 22:01 -20.47032 -54.67687 1842 ft 30 kts 221°
2026-05-04 22:01 -20.47183 -54.67833 1842 ft 27 kts 223°
2026-05-04 22:02 -20.47318 -54.67964 1842 ft 24 kts 222°
2026-05-04 22:02 -20.47440 -54.68086 1842 ft 22 kts 224°
2026-05-04 22:02 -20.47554 -54.68193 1842 ft 22 kts 221°
2026-05-04 22:02 -20.47692 -54.68324 1842 ft 23 kts 221°
2026-05-04 22:03 -20.47771 -54.68334 1842 ft 11 kts 135°
2026-05-04 22:03 -20.47822 -54.68279 1842 ft 9 kts 133°
2026-05-04 22:03 -20.47851 -54.68228 1842 ft 6 kts 91°
2026-05-04 22:03 -20.47827 -54.68191 1842 ft 7 kts 41°
2026-05-04 22:04 -20.47754 -54.68123 1842 ft 38 kts 40°
2026-05-04 22:04 -20.47348 -54.67734 1842 ft 116 kts 43°
2026-05-04 22:04 -20.46583 -54.66992 1845 ft 178 kts 41°
2026-05-04 22:04 -20.45602 -54.66028 2398 ft 193 kts 41°
2026-05-04 22:05 -20.44653 -54.65096 3349 ft 193 kts 41°
2026-05-04 22:05 -20.43636 -54.64127 4127 ft 200 kts 40°
2026-05-04 22:05 -20.42513 -54.63074 4583 ft 228 kts 40°
2026-05-04 22:05 -20.41274 -54.61894 5296 ft 246 kts 41°
2026-05-04 22:06 -20.39981 -54.60655 6312 ft 254 kts 41°
2026-05-04 22:06 -20.38694 -54.59241 6946 ft 279 kts 54°
2026-05-04 22:06 -20.37932 -54.57185 7065 ft 322 kts 81°
2026-05-04 22:06 -20.38168 -54.54796 7045 ft 332 kts 108°
2026-05-04 22:07 -20.39129 -54.52545 7040 ft 333 kts 118°
2026-05-04 22:07 -20.40135 -54.50357 7027 ft 324 kts 104°
2026-05-04 22:07 -20.40490 -54.48015 7062 ft 318 kts 94°
2026-05-04 22:07 -20.40867 -54.45701 7035 ft 318 kts 106°
2026-05-04 22:08 -20.41683 -54.43514 7054 ft 317 kts 112°
2026-05-04 22:08 -20.42595 -54.41385 7044 ft 314 kts 113°
2026-05-04 22:08 -20.43475 -54.39312 7038 ft 300 kts 112°
2026-05-04 22:08 -20.44301 -54.37336 7047 ft 286 kts 112°
2026-05-04 22:09 -20.45121 -54.35415 7072 ft 286 kts 114°
2026-05-04 22:09 -20.46020 -54.33475 7761 ft 292 kts 114°
2026-05-04 22:09 -20.46920 -54.31551 8563 ft 295 kts 114°
2026-05-04 22:09 -20.47831 -54.29593 9356 ft 298 kts 114°
2026-05-04 22:10 -20.48744 -54.27626 9926 ft 298 kts 114°
2026-05-04 22:10 -20.49671 -54.25619 10389 ft 306 kts 114°
2026-05-04 22:10 -20.50606 -54.23597 11244 ft 306 kts 114°
2026-05-04 22:10 -20.51548 -54.21556 11907 ft 306 kts 114°
2026-05-04 22:11 -20.52495 -54.19505 12196 ft 310 kts 114°
2026-05-04 22:11 -20.53452 -54.17426 12526 ft 317 kts 114°
2026-05-04 22:11 -20.54413 -54.15344 13289 ft 312 kts 114°
2026-05-04 22:11 -20.55386 -54.13233 13749 ft 321 kts 114°
2026-05-04 22:12 -20.56358 -54.11125 14153 ft 320 kts 113°
2026-05-04 22:12 -20.57350 -54.08967 14758 ft 326 kts 114°
2026-05-04 22:12 -20.58349 -54.06798 15243 ft 328 kts 113°
2026-05-04 22:12 -20.59363 -54.04593 15809 ft 329 kts 113°
2026-05-04 22:13 -20.60380 -54.02382 16238 ft 336 kts 113°
2026-05-04 22:13 -20.61400 -54.00132 16873 ft 339 kts 111°
2026-05-04 22:13 -20.62283 -53.97790 17425 ft 343 kts 105°
2026-05-04 22:13 -20.62907 -53.95337 18025 ft 344 kts 100°
2026-05-04 22:14 -20.63433 -53.92840 18587 ft 348 kts 99°
2026-05-04 22:14 -20.63952 -53.90300 19146 ft 352 kts 99°
2026-05-04 22:14 -20.64468 -53.87757 19494 ft 352 kts 99°
2026-05-04 22:14 -20.64986 -53.85187 19830 ft 357 kts 99°
2026-05-04 22:15 -20.65505 -53.82618 20286 ft 356 kts 99°
2026-05-04 22:15 -20.66029 -53.80009 20712 ft 363 kts 99°
2026-05-04 22:15 -20.66560 -53.77366 21222 ft 366 kts 99°
2026-05-04 22:15 -20.67093 -53.74708 21565 ft 369 kts 99°
2026-05-04 22:16 -20.67633 -53.72010 22031 ft 371 kts 99°
2026-05-04 22:16 -20.68173 -53.69315 22324 ft 375 kts 99°
2026-05-04 22:16 -20.68717 -53.66590 22829 ft 378 kts 99°
2026-05-04 22:16 -20.69266 -53.63842 23257 ft 380 kts 99°
2026-05-04 22:17 -20.69820 -53.61070 23528 ft 385 kts 99°
2026-05-04 22:17 -20.70379 -53.58271 24012 ft 387 kts 99°
2026-05-04 22:17 -20.70941 -53.55453 24419 ft 391 kts 99°
2026-05-04 22:17 -20.71511 -53.52597 24844 ft 394 kts 99°
2026-05-04 22:18 -20.72082 -53.49729 25254 ft 398 kts 99°
2026-05-04 22:18 -20.72654 -53.46845 25574 ft 398 kts 99°
2026-05-04 22:18 -20.73225 -53.43938 25917 ft 402 kts 100°
2026-05-04 22:18 -20.73805 -53.41030 26159 ft 405 kts 100°
2026-05-04 22:19 -20.74391 -53.38079 26515 ft 406 kts 100°
2026-05-04 22:19 -20.74973 -53.35144 26635 ft 407 kts 100°
2026-05-04 22:19 -20.75559 -53.32197 26843 ft 405 kts 100°
2026-05-04 22:19 -20.76147 -53.29239 27112 ft 410 kts 99°
2026-05-04 22:20 -20.76738 -53.26253 27418 ft 412 kts 100°
2026-05-04 22:20 -20.77331 -53.23252 27584 ft 414 kts 100°
2026-05-04 22:20 -20.77924 -53.20245 27744 ft 415 kts 100°
2026-05-04 22:20 -20.78520 -53.17221 28017 ft 415 kts 100°
2026-05-04 22:21 -20.79118 -53.14189 28248 ft 420 kts 100°
2026-05-04 22:21 -20.79721 -53.11124 28592 ft 423 kts 100°
2026-05-04 22:21 -20.80329 -53.08039 28875 ft 427 kts 100°
2026-05-04 22:21 -20.80934 -53.04948 29084 ft 427 kts 101°
2026-05-04 22:22 -20.81545 -53.01840 29405 ft 427 kts 101°
2026-05-04 22:22 -20.82153 -52.98731 29632 ft 430 kts 100°
2026-05-04 22:22 -20.82764 -52.95603 29948 ft 432 kts 101°
2026-05-04 22:22 -20.83377 -52.92466 30157 ft 432 kts 101°
2026-05-04 22:23 -20.83994 -52.89316 30433 ft 435 kts 101°
2026-05-04 22:23 -20.84662 -52.86154 30744 ft 438 kts 104°
2026-05-04 22:23 -20.85575 -52.83048 31005 ft 441 kts 109°
2026-05-04 22:23 -20.86605 -52.79970 31288 ft 439 kts 110°
2026-05-04 22:24 -20.87650 -52.76911 31388 ft 442 kts 110°
2026-05-04 22:24 -20.88705 -52.73832 31679 ft 443 kts 110°
2026-05-04 22:24 -20.89770 -52.70729 31928 ft 446 kts 110°
2026-05-04 22:24 -20.90841 -52.67611 32198 ft 449 kts 111°
2026-05-04 22:25 -20.91919 -52.64479 32473 ft 451 kts 111°
2026-05-04 22:25 -20.93000 -52.61335 32726 ft 453 kts 111°
2026-05-04 22:25 -20.94087 -52.58175 32936 ft 452 kts 111°
2026-05-04 22:25 -20.95168 -52.55031 33042 ft 451 kts 111°
2026-05-04 22:26 -20.96247 -52.51899 33133 ft 450 kts 111°
2026-05-04 22:26 -20.98408 -52.45609 33306 ft 455 kts 111°
2026-05-04 22:26 -20.99504 -52.42415 33506 ft 459 kts 111°
2026-05-04 22:27 -21.00596 -52.39228 33672 ft 456 kts 111°
2026-05-04 22:27 -21.01694 -52.36023 33837 ft 460 kts 111°
2026-05-04 22:27 -21.02799 -52.32801 34044 ft 463 kts 111°
2026-05-04 22:27 -21.03909 -52.29564 34236 ft 465 kts 111°
2026-05-04 22:28 -21.05022 -52.26319 34472 ft 467 kts 111°
2026-05-04 22:28 -21.06141 -52.23053 34696 ft 468 kts 111°
2026-05-04 22:28 -21.07259 -52.19787 34834 ft 468 kts 111°
2026-05-04 22:28 -21.08378 -52.16512 34966 ft 468 kts 111°
2026-05-04 22:29 -21.09496 -52.13237 35077 ft 472 kts 111°
2026-05-04 22:29 -21.11772 -52.06569 35074 ft 482 kts 111°
2026-05-04 22:30 -21.14087 -51.99767 35072 ft 490 kts 111°
2026-05-04 22:30 -21.16410 -51.92927 35073 ft 488 kts 111°
2026-05-04 22:31 -21.18720 -51.86119 35072 ft 485 kts 111°
2026-05-04 22:31 -21.21022 -51.79321 35074 ft 487 kts 111°
2026-05-04 22:32 -21.23326 -51.72511 35073 ft 486 kts 111°
2026-05-04 22:32 -21.25625 -51.65708 35075 ft 487 kts 111°
2026-05-04 22:33 -21.27926 -51.58887 35074 ft 488 kts 111°
2026-05-04 22:33 -21.30222 -51.52068 35073 ft 486 kts 111°
2026-05-04 22:34 -21.32510 -51.45264 35075 ft 487 kts 111°
2026-05-04 22:34 -21.34797 -51.38454 35073 ft 486 kts 111°
2026-05-04 22:35 -21.37085 -51.31631 35074 ft 486 kts 111°
2026-05-04 22:35 -21.39369 -51.24820 35074 ft 486 kts 111°
2026-05-04 22:36 -21.41650 -51.18000 35074 ft 486 kts 111°
2026-05-04 22:36 -21.43931 -51.11183 35074 ft 487 kts 111°
2026-05-04 22:37 -21.46210 -51.04344 35073 ft 486 kts 111°
2026-05-04 22:37 -21.48473 -50.97526 35074 ft 485 kts 111°
2026-05-04 22:38 -21.50731 -50.90717 35073 ft 484 kts 110°
2026-05-04 22:38 -21.52980 -50.83915 35079 ft 485 kts 110°
2026-05-04 22:39 -21.55233 -50.77091 35095 ft 485 kts 110°
2026-05-04 22:39 -21.57485 -50.70263 35110 ft 484 kts 110°
2026-05-04 22:40 -21.59726 -50.63456 35126 ft 485 kts 110°
2026-05-04 22:40 -21.61964 -50.56651 35128 ft 484 kts 110°
2026-05-04 22:41 -21.64206 -50.49822 35128 ft 486 kts 110°
2026-05-04 22:41 -21.66447 -50.42985 35128 ft 485 kts 111°
2026-05-04 22:42 -21.68691 -50.36173 35128 ft 485 kts 111°
2026-05-04 22:42 -21.70944 -50.29348 35128 ft 484 kts 110°
2026-05-04 22:43 -21.73188 -50.22537 35128 ft 484 kts 110°
2026-05-04 22:43 -21.75431 -50.15716 35128 ft 485 kts 110°
2026-05-04 22:44 -21.77668 -50.08884 35128 ft 485 kts 110°
2026-05-04 22:44 -21.79895 -50.02056 35128 ft 485 kts 110°
2026-05-04 22:45 -21.82121 -49.95218 35128 ft 485 kts 110°
2026-05-04 22:45 -21.85451 -49.84973 35127 ft 484 kts 110°
2026-05-04 22:46 -21.87670 -49.78140 35128 ft 485 kts 110°
2026-05-04 22:46 -21.89891 -49.71281 35128 ft 484 kts 110°
2026-05-04 22:47 -21.92101 -49.64444 35127 ft 484 kts 110°
2026-05-04 22:47 -21.93878 -49.58937 35128 ft 484 kts 110°
2026-05-04 22:48 -21.96085 -49.52067 35128 ft 486 kts 110°
2026-05-04 22:48 -21.98296 -49.45154 35127 ft 485 kts 110°
2026-05-04 22:49 -22.00503 -49.38252 35128 ft 485 kts 110°
2026-05-04 22:49 -22.02695 -49.31392 35128 ft 485 kts 110°
2026-05-04 22:50 -22.04879 -49.24548 35129 ft 484 kts 110°
2026-05-04 22:50 -22.07065 -49.17685 35129 ft 485 kts 110°
2026-05-04 22:51 -22.09246 -49.10831 35127 ft 482 kts 110°
2026-05-04 22:51 -22.11390 -49.04085 35128 ft 479 kts 109°
2026-05-04 22:52 -22.13561 -48.97251 35128 ft 476 kts 109°
2026-05-04 22:52 -22.15694 -48.90525 35128 ft 475 kts 109°
2026-05-04 22:53 -22.17838 -48.83747 35128 ft 475 kts 109°
2026-05-04 22:53 -22.19983 -48.76958 35129 ft 476 kts 109°
2026-05-04 22:54 -22.22122 -48.70179 35128 ft 476 kts 109°
2026-05-04 22:54 -22.24254 -48.63410 35128 ft 475 kts 109°
2026-05-04 22:55 -22.26376 -48.56663 35128 ft 475 kts 109°
2026-05-04 22:55 -22.28501 -48.49893 35128 ft 475 kts 109°
2026-05-04 22:56 -22.30622 -48.43128 35129 ft 476 kts 109°
2026-05-04 22:56 -22.32742 -48.36354 35128 ft 475 kts 109°
2026-05-04 22:57 -22.34827 -48.29686 35127 ft 475 kts 109°
2026-05-04 22:57 -22.36948 -48.22895 35128 ft 476 kts 109°
2026-05-04 22:58 -22.39061 -48.16114 35135 ft 476 kts 109°
2026-05-04 22:58 -22.41166 -48.09345 35009 ft 473 kts 109°
2026-05-04 22:59 -22.42207 -48.05993 34447 ft 471 kts 109°
2026-05-04 22:59 -22.43245 -48.02648 33887 ft 468 kts 109°
2026-05-04 22:59 -22.44278 -47.99324 33365 ft 467 kts 109°
2026-05-04 22:59 -22.45314 -47.95991 32823 ft 469 kts 109°
2026-05-04 23:00 -22.46429 -47.92689 32284 ft 468 kts 112°
2026-05-04 23:00 -22.47780 -47.89478 31740 ft 473 kts 118°
2026-05-04 23:00 -22.49546 -47.86460 31163 ft 477 kts 127°
2026-05-04 23:00 -22.51603 -47.83620 30591 ft 482 kts 130°
2026-05-04 23:01 -22.53719 -47.80810 30019 ft 484 kts 130°
2026-05-04 23:01 -22.55834 -47.78005 29431 ft 476 kts 129°
2026-05-04 23:01 -22.57880 -47.75289 28885 ft 459 kts 129°
2026-05-04 23:01 -22.59856 -47.72662 28348 ft 444 kts 129°
2026-05-04 23:02 -22.61773 -47.70111 27824 ft 430 kts 129°
2026-05-04 23:02 -22.63627 -47.67642 27308 ft 418 kts 129°
2026-05-04 23:02 -22.65432 -47.65235 26814 ft 406 kts 128°
2026-05-04 23:02 -22.67184 -47.62897 26336 ft 395 kts 128°
2026-05-04 23:03 -22.68891 -47.60618 25872 ft 389 kts 128°
2026-05-04 23:03 -22.70602 -47.58331 25410 ft 394 kts 128°
2026-05-04 23:03 -22.72315 -47.56041 24924 ft 389 kts 128°
2026-05-04 23:03 -22.73990 -47.53801 24457 ft 378 kts 128°
2026-05-04 23:04 -22.75646 -47.51585 24011 ft 380 kts 128°
2026-05-04 23:04 -22.77316 -47.49347 23547 ft 381 kts 128°
2026-05-04 23:04 -22.78965 -47.47140 23054 ft 372 kts 127°
2026-05-04 23:04 -22.80570 -47.44989 22617 ft 366 kts 127°
2026-05-04 23:05 -22.82175 -47.42835 22191 ft 371 kts 127°
2026-05-04 23:05 -22.83784 -47.40677 21720 ft 365 kts 127°
2026-05-04 23:05 -22.85360 -47.38564 21295 ft 358 kts 127°
2026-05-04 23:05 -22.86920 -47.36468 20864 ft 357 kts 127°
2026-05-04 23:06 -22.88480 -47.34372 20421 ft 356 kts 127°
2026-05-04 23:06 -22.90031 -47.32288 19990 ft 355 kts 127°
2026-05-04 23:06 -22.91586 -47.30196 19555 ft 354 kts 127°
2026-05-04 23:06 -22.93107 -47.28149 19121 ft 353 kts 127°
2026-05-04 23:07 -22.94647 -47.26078 18701 ft 351 kts 127°
2026-05-04 23:07 -22.96173 -47.24023 18279 ft 350 kts 127°
2026-05-04 23:07 -22.97696 -47.21971 17851 ft 349 kts 127°
2026-05-04 23:07 -22.99215 -47.19925 17426 ft 348 kts 127°
2026-05-04 23:08 -23.00739 -47.17894 16998 ft 347 kts 131°
2026-05-04 23:08 -23.02534 -47.16168 16560 ft 346 kts 147°
2026-05-04 23:08 -23.04695 -47.15094 16123 ft 343 kts 166°
2026-05-04 23:08 -23.07016 -47.14521 15693 ft 342 kts 170°
2026-05-04 23:09 -23.09340 -47.14031 15236 ft 341 kts 171°
2026-05-04 23:09 -23.11669 -47.13535 14794 ft 340 kts 170°
2026-05-04 23:09 -23.13988 -47.13035 14351 ft 339 kts 170°
2026-05-04 23:09 -23.16296 -47.12532 13912 ft 338 kts 170°
2026-05-04 23:10 -23.18600 -47.12027 13470 ft 337 kts 169°
2026-05-04 23:10 -23.20898 -47.11523 13033 ft 335 kts 169°
2026-05-04 23:10 -23.23182 -47.11020 12595 ft 334 kts 169°
2026-05-04 23:10 -23.25448 -47.10521 12202 ft 331 kts 169°
2026-05-04 23:11 -23.27681 -47.10031 11756 ft 324 kts 169°
2026-05-04 23:11 -23.29854 -47.09557 11320 ft 314 kts 169°
2026-05-04 23:11 -23.31984 -47.09092 10924 ft 312 kts 169°
2026-05-04 23:11 -23.34107 -47.08628 10507 ft 312 kts 168°
2026-05-04 23:12 -23.36215 -47.08167 10157 ft 309 kts 168°
2026-05-04 23:12 -23.38283 -47.07712 10017 ft 299 kts 168°
2026-05-04 23:12 -23.40303 -47.07184 9573 ft 301 kts 158°
2026-05-04 23:12 -23.42068 -47.06006 9215 ft 295 kts 133°
2026-05-04 23:13 -23.43131 -47.04299 9040 ft 283 kts 110°
2026-05-04 23:13 -23.43731 -47.02288 8802 ft 276 kts 103°
2026-05-04 23:13 -23.44241 -47.00279 8449 ft 276 kts 103°
2026-05-04 23:13 -23.44754 -46.98267 8123 ft 274 kts 103°
2026-05-04 23:14 -23.45265 -46.96279 7792 ft 273 kts 104°
2026-05-04 23:14 -23.45777 -46.94300 7457 ft 272 kts 104°
2026-05-04 23:14 -23.46289 -46.92324 7132 ft 270 kts 104°
2026-05-04 23:14 -23.46792 -46.90357 6795 ft 269 kts 106°
2026-05-04 23:15 -23.47239 -46.88380 6472 ft 268 kts 105°
2026-05-04 23:15 -23.47633 -46.86651 6192 ft 267 kts 106°
2026-05-04 23:15 -23.48008 -46.85109 6026 ft 263 kts 107°
2026-05-04 23:15 -23.48564 -46.82920 5795 ft 252 kts 107°
2026-05-04 23:16 -23.49027 -46.81160 5689 ft 226 kts 108°
2026-05-04 23:16 -23.49456 -46.79588 5416 ft 208 kts 108°
2026-05-04 23:16 -23.49855 -46.78135 5192 ft 191 kts 109°
2026-05-04 23:16 -23.50231 -46.76778 5179 ft 184 kts 108°
2026-05-04 23:17 -23.50602 -46.75426 5144 ft 189 kts 108°
2026-05-04 23:17 -23.50996 -46.74055 5059 ft 187 kts 116°
2026-05-04 23:17 -23.51842 -46.73029 4898 ft 184 kts 152°
2026-05-04 23:17 -23.52959 -46.72353 4686 ft 182 kts 150°
2026-05-04 23:18 -23.53970 -46.71658 4496 ft 168 kts 149°
2026-05-04 23:18 -23.54938 -46.70990 4263 ft 159 kts 149°
2026-05-04 23:18 -23.55866 -46.70348 4039 ft 156 kts 149°
2026-05-04 23:18 -23.56778 -46.69718 3838 ft 155 kts 148°
2026-05-04 23:19 -23.57687 -46.69090 3629 ft 153 kts 148°
2026-05-04 23:19 -23.58590 -46.68466 3425 ft 151 kts 148°
2026-05-04 23:19 -23.59486 -46.67849 3221 ft 151 kts 148°
2026-05-04 23:19 -23.60366 -46.67244 3042 ft 149 kts 148°
2026-05-04 23:20 -23.61242 -46.66629 2871 ft 149 kts 148°
2026-05-04 23:20 -23.62104 -46.66035 2658 ft 143 kts 148°
2026-05-04 23:20 -23.62782 -46.65565 2629 ft 68 kts 146°
2026-05-04 23:20 -23.62927 -46.65513 2632 ft 11 kts 238°
2026-05-04 23:21 -23.62916 -46.65577 2632 ft 9 kts 320°
2026-05-04 23:21 -23.62864 -46.65617 2631 ft 9 kts 328°
2026-05-04 23:21 -23.62810 -46.65654 2630 ft 9 kts 327°
2026-05-04 23:21 -23.62751 -46.65696 2627 ft 10 kts 327°
2026-05-04 23:22 -23.62682 -46.65744 2623 ft 12 kts 327°
2026-05-04 23:22 -23.62606 -46.65797 2622 ft 12 kts 328°
2026-05-04 23:22 -23.62539 -46.65845 2621 ft 4 kts 305°
2026-05-04 23:22 -23.62546 -46.65876 2621 ft 3 kts 242°
2026-05-04 23:23 -23.62558 -46.65895 2621 ft 2 kts 235°
2026-05-04 23:23 -23.62564 -46.65906 2621 ft 2 kts 236°
2026-05-04 23:23 -23.62572 -46.65919 2621 ft 0 kts 237°